CW0465 Weather Reports


time (UTC)temp
F
wind
direction
speed
knots
gust
knots
rain 1hr
in
rain 24hr
in
rain mn
in
humidity
%
barometer
mb
20260506144507 65 270 0.0 11.3 0.00 0.00 0.00 79 1007.7
20260506144503 64 216 3.5 11.3 0.00 0.00 0.00 79 1009.3
20260506143817 64 199 2.6 8.7 0.00 0.00 0.00 79 1009.3
20260506143006 65 228 4.3 8.7 0.00 0.00 0.00 79 1008.1
20260506142703 64 208 2.6 8.7 0.00 0.00 0.00 79 1009.6
20260506141803 64 200 2.6 11.3 0.00 0.00 0.00 80 1009.6
20260506141505 64 180 0.9 6.1 0.00 0.00 0.00 80 1008.4
20260506140903 64 195 1.7 5.2 0.00 0.00 0.00 80 1009.6
20260506140003 64 215 0.0 4.3 0.00 0.00 0.00 81 1008.4
20260506135403 64 185 1.7 8.7 0.00 0.00 0.00 80 1009.6
20260506134503 63 193 2.6 11.3 0.00 0.00 0.00 81 1009.3
20260506134458 63 202 5.2 5.2 0.00 0.00 0.00 81 1007.7
20260506133603 63 192 2.6 11.3 0.00 0.00 0.00 82 1009.3
20260506132954 63 90 0.0 6.1 0.00 0.00 0.00 82 1008.0
20260506132918 62 191 2.6 8.7 0.00 0.00 0.00 82 1009.3
20260506131803 62 182 1.7 11.3 0.00 0.00 0.00 82 1009.3
20260506131450 62 74 0.0 5.2 0.00 0.00 0.00 83 1007.8
20260506130903 62 198 2.6 7.8 0.00 0.00 0.00 83 1008.9
20260506130004 62 195 2.6 10.4 0.00 0.00 0.00 83 1009.6
20260506125948 62 228 1.7 7.8 0.00 0.00 0.00 83 1008.0
20260506125403 61 201 2.6 10.4 0.00 0.00 0.00 83 1009.3
20260506124503 61 192 1.7 7.0 0.00 0.00 0.00 83 1009.6
20260506124447 62 252 0.0 3.5 0.00 0.00 0.00 83 1008.4
20260506123603 61 166 1.7 13.9 0.00 0.00 0.00 83 1009.3
20260506122946 62 190 0.0 7.8 0.00 0.00 0.00 83 1008.0
20260506122703 61 192 2.6 13.9 0.00 0.00 0.00 83 1009.6
20260506121803 61 215 2.6 7.0 0.00 0.00 0.00 83 1010.0
20260506121443 62 82 2.6 4.3 0.00 0.00 0.00 84 1008.5
20260506121118 61 197 1.7 13.9 0.00 0.00 0.00 83 1010.0
20260506120004 61 188 1.7 7.8 0.00 0.00 0.00 83 1010.0
20260506115941 62 213 2.6 7.0 0.00 0.00 0.00 83 1008.5
20260506115403 61 178 2.6 7.8 0.00 0.00 0.00 83 1009.6
20260506114718 61 185 1.7 7.0 0.00 0.00 0.00 84 1009.6
20260506114440 61 156 4.3 6.1 0.00 0.00 0.00 84 1008.4
20260506113603 60 143 0.9 4.3 0.00 0.01 0.00 84 1009.6
20260506112937 60 114 0.0 3.5 0.00 0.00 0.00 85 1008.2
20260506112917 60 170 0.9 5.2 0.00 0.01 0.00 85 1009.6
20260506112016 60 142 0.9 5.2 0.00 0.01 0.00 85 1009.6
20260506111436 60 198 0.0 2.6 0.00 0.00 0.00 85 1008.4
20260506110903 60 187 1.7 6.1 0.00 0.01 0.00 85 1009.6
20260506110217 60 185 1.7 6.1 0.00 0.01 0.00 85 1009.6
20260506105933 60 230 1.7 6.1 0.00 0.00 0.00 85 1008.2
20260506105403 59 157 0.9 5.2 0.00 0.01 0.00 86 1010.0
20260506104503 59 180 1.7 5.2 0.00 0.01 0.00 86 1009.6
20260506104431 59 345 0.0 5.2 0.00 0.00 0.00 86 1008.1
20260506103603 58 169 0.9 4.3 0.00 0.01 0.00 86 1009.6
20260506102928 58 103 0.0 1.7 0.00 0.00 0.00 87 1008.1
20260506102703 58 116 0.9 3.5 0.00 0.01 0.00 87 1009.6
20260506101804 58 77 0.9 2.6 0.00 0.01 0.00 88 1009.3
20260506101425 57 90 0.0 2.6 0.00 0.00 0.00 88 1008.0
20260506100903 57 100 0.9 2.6 0.00 0.01 0.00 88 1009.6
20260506100003 57 77 0.9 4.3 0.00 0.01 0.00 89 1009.6
20260506095925 57 73 0.0 2.6 0.00 0.00 0.00 89 1007.9
20260506095403 56 54 0.9 4.3 0.00 0.01 0.00 89 1009.6
20260506094503 56 60 0.9 2.6 0.00 0.01 0.00 89 1009.6
20260506094424 56 54 0.0 1.7 0.00 0.00 0.00 89 1008.0
20260506093603 56 63 0.9 2.6 0.00 0.01 0.00 89 1009.3
20260506092922 56 83 0.0 2.6 0.00 0.00 0.00 89 1008.2
20260506092703 56 53 0.0 2.6 0.00 0.01 0.00 89 1009.6
20260506091803 56 49 0.9 2.6 0.00 0.01 0.00 89 1009.6
20260506091420 55 26 0.0 1.7 0.00 0.00 0.00 88 1008.0
20260506090903 56 23 0.9 3.5 0.00 0.01 0.00 88 1009.6
20260506090003 56 34 0.9 3.5 0.00 0.01 0.00 88 1009.6
20260506085917 56 23 0.0 1.7 0.00 0.00 0.00 88 1008.1
20260506085618 56 46 0.9 1.7 0.00 0.01 0.00 88 1009.3
20260506084503 56 44 0.9 2.6 0.00 0.01 0.00 88 1009.6
20260506084413 55 26 0.0 0.9 0.00 0.00 0.00 87 1008.1
20260506083603 56 38 0.9 3.5 0.00 0.01 0.00 87 1009.6
20260506082910 57 7 1.7 3.5 0.00 0.00 0.00 86 1008.5
20260506082703 57 43 0.9 3.5 0.00 0.01 0.00 86 1009.6
20260506081803 58 54 0.9 2.6 0.00 0.01 0.00 85 1009.6
20260506081407 58 15 0.0 1.7 0.00 0.00 0.00 84 1008.5
20260506081117 58 43 0.9 2.6 0.00 0.01 0.00 84 1009.6
20260506072859 60 194 0.9 2.6 0.00 0.00 0.00 81 1008.4
20260506072703 60 189 0.9 5.2 0.00 0.01 0.00 81 1010.0
20260506071803 60 181 0.9 5.2 0.00 0.01 0.00 80 1009.6
20260506071358 61 98 1.7 4.3 0.00 0.00 0.00 80 1008.5
20260506070903 61 213 2.6 5.2 0.00 0.01 0.00 79 1009.6
20260506061803 62 211 2.6 11.3 0.00 0.01 0.00 75 1009.6
20260506061344 62 225 2.6 11.3 0.00 0.00 0.00 75 1008.0
20260506060903 62 199 2.6 8.7 0.00 0.01 0.00 74 1009.6
20260506051336 64 211 2.6 4.3 0.00 0.00 0.00 72 1009.0
20260506050903 64 219 2.6 10.4 0.00 0.01 0.00 71 1010.3
20260506044503 65 207 3.5 11.3 0.00 0.01 0.00 69 1010.3
20260506044330 65 220 1.7 8.7 0.00 0.00 0.00 69 1008.8
20260506043603 65 208 3.5 13.9 0.00 0.01 0.00 69 1010.3
20260506042829 65 240 6.1 13.9 0.00 0.00 0.00 69 1008.8
20260506042703 65 206 3.5 13.9 0.00 0.01 0.00 68 1010.3
20260506042018 66 214 3.5 11.3 0.00 0.01 0.00 68 1010.3
20260506041328 66 216 0.0 7.8 0.00 0.00 0.00 68 1008.9
20260506040903 65 195 2.6 12.2 0.00 0.01 0.00 68 1010.3
20260506040008 66 209 2.6 7.8 0.00 0.01 0.00 68 1010.0
20260506035825 66 215 0.9 7.8 0.00 0.00 0.00 68 1008.7
20260506035618 66 211 3.5 11.3 0.00 0.01 0.01 68 1010.3
20260506034503 66 205 3.5 12.2 0.00 0.01 0.01 66 1010.3
20260506034322 66 202 1.7 7.0 0.00 0.00 0.00 67 1008.7
20260506033817 66 201 3.5 8.7 0.00 0.01 0.01 67 1010.0
20260506032819 66 227 0.0 7.0 0.00 0.00 0.00 67 1008.7
20260506032703 66 206 2.6 9.6 0.00 0.01 0.01 67 1010.3
20260506031803 66 205 2.6 12.2 0.00 0.01 0.01 66 1010.0
20260506031315 66 205 3.5 6.1 0.00 0.00 0.00 66 1008.8
20260506031117 66 209 2.6 12.2 0.00 0.01 0.01 66 1010.0
20260506030003 66 209 2.6 13.0 0.00 0.01 0.01 66 1010.3
20260506025813 66 259 2.6 5.2 0.00 0.00 0.00 66 1008.7
20260506025403 66 205 1.7 13.0 0.00 0.01 0.01 65 1010.3
20260506024503 65 186 1.7 5.2 0.00 0.01 0.01 67 1010.3
20260506024309 65 198 0.0 2.6 0.00 0.00 0.00 67 1008.8
20260506023603 65 192 1.7 4.3 0.00 0.01 0.01 67 1010.0
20260506022805 65 206 0.0 2.6 0.00 0.00 0.00 67 1008.8
20260506022703 65 162 0.9 5.2 0.00 0.01 0.01 67 1010.0
20260506021803 65 170 0.9 3.5 0.00 0.01 0.01 66 1010.3
20260506021303 66 71 0.9 3.5 0.00 0.00 0.00 65 1009.1
20260506020903 66 167 0.9 2.6 0.00 0.01 0.01 65 1010.0
20260506020003 66 180 0.9 6.1 0.00 0.01 0.01 65 1010.3
20260506015801 67 195 0.0 3.5 0.00 0.00 0.00 64 1008.8
20260506015403 66 193 0.9 2.6 0.00 0.01 0.01 65 1010.3
20260506014503 66 175 1.7 7.0 0.00 0.01 0.01 65 1010.0
20260506014257 66 135 1.7 4.3 0.00 0.00 0.00 63 1008.6
20260506013603 67 173 0.9 6.1 0.00 0.01 0.01 63 1010.0
20260506012753 67 194 0.0 1.7 0.00 0.00 0.00 63 1008.1
20260506012703 67 235 0.0 1.7 0.00 0.01 0.01 62 1009.6
20260506011803 67 205 0.9 2.6 0.00 0.01 0.01 62 1009.6
20260506011249 67 270 0.0 0.9 0.00 0.00 0.00 62 1007.8
20260506011118 68 214 0.9 3.5 0.00 0.01 0.01 62 1009.6
20260506010003 68 219 0.9 5.2 0.00 0.01 0.01 63 1009.3
20260506005748 67 180 2.6 2.6 0.00 0.00 0.00 63 1007.9
20260506005403 67 220 0.9 3.5 0.00 0.01 0.01 63 1009.3
20260506004504 67 233 0.9 3.5 0.00 0.01 0.01 62 1009.3
20260506004244 67 241 1.7 2.6 0.00 0.00 0.00 64 1007.9
20260506003818 67 219 0.9 3.5 0.00 0.01 0.01 63 1009.3
20260506002917 67 202 0.9 3.5 0.00 0.01 0.01 64 1009.3
20260506002744 67 249 0.0 2.6 0.00 0.00 0.00 63 1007.6
20260506002018 67 209 0.9 1.7 0.00 0.01 0.01 64 1008.9
20260506001240 68 99 0.0 1.7 0.00 0.00 0.00 63 1007.5
20260506000903 67 177 0.9 4.3 0.00 0.01 0.01 63 1008.9
20260506000003 68 197 0.9 3.5 0.00 0.01 0.01 63 1008.9
20260505235737 67 243 1.7 2.6 0.00 0.00 0.00 64 1007.5
20260505235403 68 154 0.9 3.5 0.00 0.01 0.01 63 1008.9
20260505234503 68 147 0.9 6.1 0.00 0.01 0.01 62 1008.6
20260505234235 69 237 1.7 6.1 0.00 0.00 0.00 61 1007.1
20260505233603 69 153 0.9 5.2 0.00 0.01 0.01 61 1008.6
20260505232732 69 159 1.7 3.5 0.00 0.00 0.00 60 1006.9
20260505232703 69 147 1.7 5.2 0.00 0.01 0.01 60 1008.2
20260505231803 70 157 1.7 7.0 0.00 0.01 0.01 59 1008.6
20260505231231 70 194 0.9 7.0 0.00 0.00 0.00 59 1006.7
20260505230903 70 144 1.7 7.0 0.00 0.01 0.01 59 1008.2
20260505230003 70 150 1.7 6.1 0.00 0.01 0.01 59 1007.9
20260505225727 71 172 2.6 4.3 0.00 0.00 0.00 59 1006.5
20260505225403 71 150 1.7 6.1 0.00 0.01 0.01 58 1008.2
20260505224503 71 128 2.6 7.8 0.00 0.01 0.01 57 1007.9
20260505224223 72 210 1.7 6.1 0.00 0.00 0.00 58 1006.6
20260505223603 72 101 1.7 7.0 0.00 0.01 0.01 57 1007.9
20260505222918 72 102 1.7 5.2 0.00 0.01 0.01 57 1007.9
20260505222719 73 180 0.9 4.3 0.00 0.00 0.00 56 1006.3
20260505221803 73 111 1.7 7.0 0.00 0.01 0.01 55 1007.9
20260505221215 74 119 1.7 3.5 0.00 0.00 0.00 54 1006.3
20260505220903 74 102 1.7 6.1 0.00 0.01 0.01 54 1007.9
20260505220003 74 133 1.7 9.6 0.00 0.01 0.01 54 1007.9
20260505215713 75 201 0.0 3.5 0.00 0.00 0.00 54 1006.3
20260505215618 74 148 1.7 9.6 0.00 0.01 0.01 53 1007.9
20260505214503 76 145 1.7 7.0 0.00 0.01 0.01 50 1007.9
20260505214212 77 186 0.9 4.3 0.00 0.00 0.00 51 1006.4
20260505213816 76 186 1.7 7.0 0.00 0.01 0.01 50 1007.9
20260505212708 77 124 0.0 5.2 0.00 0.00 0.00 50 1006.1
20260505212703 76 145 2.6 8.7 0.00 0.01 0.01 50 1007.9
20260505211803 76 147 2.6 13.0 0.00 0.01 0.01 50 1007.5
20260505211205 78 257 0.9 8.7 0.00 0.00 0.00 49 1006.0
20260505211116 77 132 2.6 9.6 0.00 0.01 0.01 49 1007.2
20260505210218 78 155 2.6 8.7 0.00 0.01 0.01 48 1007.2
20260505205702 78 180 0.9 4.3 0.00 0.00 0.00 48 1005.9
20260505205403 77 138 2.6 9.6 0.00 0.01 0.01 48 1007.2
20260505204503 78 135 2.6 8.7 0.00 0.01 0.01 45 1007.2
20260505204200 79 248 4.3 6.1 0.00 0.00 0.00 47 1006.0
20260505203603 78 184 2.6 10.4 0.00 0.01 0.01 46 1007.5
20260505202917 78 210 2.6 10.4 0.00 0.01 0.01 47 1007.5
20260505202655 78 233 2.6 7.0 0.00 0.00 0.00 47 1006.1
20260505201803 78 199 2.6 12.2 0.00 0.01 0.01 45 1007.5
20260505201152 79 222 0.0 2.6 0.00 0.00 0.00 44 1006.3
20260505201118 78 217 2.6 11.3 0.00 0.01 0.01 44 1007.5
20260505200003 78 206 4.3 13.9 0.00 0.01 0.01 44 1007.9
20260505195648 79 220 6.1 13.0 0.00 0.00 0.00 45 1006.2
20260505195617 78 207 4.3 13.0 0.00 0.01 0.01 45 1007.9
20260505194718 78 199 4.3 13.0 0.00 0.01 0.01 45 1007.5
20260505194145 81 174 6.1 10.4 0.00 0.00 0.00 43 1006.3
20260505193818 80 212 3.5 11.3 0.00 0.01 0.01 44 1007.5
20260505192703 80 214 2.6 12.2 0.00 0.01 0.01 45 1007.9
20260505192643 80 199 1.7 9.6 0.00 0.00 0.00 44 1006.3
20260505191803 78 190 4.3 13.9 0.00 0.01 0.01 45 1007.9
20260505191142 80 208 4.3 13.9 0.00 0.00 0.00 44 1006.4
20260505190903 80 198 2.6 10.4 0.00 0.01 0.01 44 1007.9
20260505190003 79 227 4.3 13.0 0.00 0.01 0.01 46 1007.9
20260505185640 80 264 2.6 10.4 0.00 0.00 0.00 47 1006.8
20260505185403 78 208 4.3 13.0 0.00 0.01 0.01 45 1008.2
20260505184503 78 218 5.2 16.5 0.00 0.01 0.01 44 1008.2
20260505184136 79 224 8.7 13.9 0.00 0.00 0.00 45 1006.8
20260505183603 77 205 3.5 11.3 0.00 0.01 0.01 45 1008.2
20260505182703 78 211 4.3 20.0 0.00 0.01 0.01 45 1008.2
20260505182632 79 217 2.6 4.3 0.00 0.00 0.00 44 1006.8
20260505181804 78 218 4.3 12.2 0.00 0.01 0.01 43 1008.2
20260505181129 79 191 1.7 9.6 0.00 0.00 0.00 44 1006.9
20260505180903 79 217 3.5 16.5 0.00 0.01 0.01 43 1008.6
20260505180003 78 210 4.3 16.5 0.00 0.01 0.01 43 1008.6
20260505175624 79 188 3.5 10.4 0.00 0.00 0.00 43 1006.7
20260505175618 78 198 4.3 14.8 0.00 0.01 0.01 43 1008.2
20260505174503 79 198 2.6 9.6 0.00 0.01 0.01 42 1008.6
20260505174120 79 125 4.3 8.7 0.00 0.00 0.00 44 1007.1
20260505173603 78 210 4.3 15.6 0.00 0.01 0.01 44 1008.6
20260505172703 78 201 2.6 13.9 0.00 0.01 0.01 43 1008.6
20260505172617 79 235 1.7 5.2 0.00 0.00 0.00 43 1007.3
20260505171803 77 213 3.5 11.3 0.00 0.01 0.01 45 1008.9
20260505171117 78 220 4.3 9.6 0.00 0.00 0.00 45 1007.3
20260505170903 78 199 3.5 13.9 0.00 0.01 0.01 45 1008.9
20260505170003 76 214 3.5 13.9 0.00 0.01 0.01 46 1009.3
20260505165617 79 208 3.5 7.0 0.00 0.00 0.00 46 1007.9
20260505165403 77 202 3.5 11.3 0.00 0.01 0.01 46 1009.3
20260505164503 76 191 2.6 9.6 0.00 0.01 0.01 47 1009.6
20260505164113 77 225 0.0 9.6 0.00 0.00 0.00 47 1008.1
20260505163603 75 187 3.5 13.0 0.00 0.01 0.01 48 1009.6
20260505162703 75 206 3.5 11.3 0.00 0.01 0.01 48 1010.0
20260505162611 77 152 5.2 11.3 0.00 0.00 0.00 48 1008.4
20260505161803 74 220 3.5 9.6 0.00 0.01 0.01 50 1010.0
20260505161117 74 215 3.5 13.0 0.00 0.01 0.01 50 1010.3
20260505161109 75 279 1.7 7.8 0.00 0.00 0.00 49 1008.4
20260505160218 74 213 3.5 12.2 0.00 0.01 0.01 51 1010.0
20260505152703 73 192 2.6 7.0 0.00 0.01 0.01 52 1010.3
20260505152602 75 183 2.6 7.8 0.00 0.00 0.00 53 1008.7
20260505151803 72 204 3.5 10.4 0.00 0.01 0.01 54 1010.3
20260505151057 73 228 1.7 10.4 0.00 0.00 0.00 56 1008.9
20260505150903 72 200 3.5 9.6 0.00 0.01 0.01 54 1010.3